GW0416 Weather Reports


Display with metric or nautical units.
time (UTC)temp
F
wind
direction
speed
MPH
gust
MPH
rain 1hr
in
rain 24hr
in
rain mn
in
humidity
%
barometer
mb
20260507181528 65 355 14.0 24.0 0.00 0.00 0.00 35 1011.6
20260507180030 65 302 14.0 27.0 0.00 0.00 0.00 39 1011.8
20260507174532 65 337 15.0 30.0 0.00 0.00 0.00 39 1011.8
20260507173034 64 5 18.0 28.0 0.00 0.00 0.00 39 1011.9
20260507171529 64 346 17.0 26.0 0.00 0.00 0.00 39 1011.9
20260507170030 63 360 15.0 29.0 0.00 0.00 0.00 41 1012.0
20260507164530 63 341 19.0 26.0 0.00 0.00 0.00 41 1012.1
20260507163028 62 336 18.0 28.0 0.00 0.00 0.00 42 1012.0
20260507161531 62 336 11.0 20.0 0.00 0.00 0.00 41 1012.0
20260507160035 61 306 12.0 17.0 0.00 0.00 0.00 43 1012.0
20260507154531 61 326 10.0 17.0 0.00 0.00 0.00 44 1012.0
20260507153033 60 286 8.0 14.0 0.00 0.00 0.00 47 1012.0
20260507151530 58 309 7.0 10.0 0.00 0.00 0.00 49 1012.1
20260507150030 56 290 5.0 8.0 0.00 0.00 0.00 53 1012.2
20260507144534 53 288 2.0 5.0 0.00 0.00 0.00 55 1012.2
20260507143034 52 36 3.0 11.0 0.00 0.00 0.00 55 1012.1
20260507141531 52 32 5.0 8.0 0.00 0.00 0.00 56 1012.2
20260507140030 52 14 6.0 9.0 0.00 0.00 0.00 56 1012.0
20260507134530 50 296 3.0 5.0 0.00 0.00 0.00 57 1012.0
20260507133032 49 296 3.0 11.0 0.00 0.00 0.00 59 1011.8
20260507131539 47 287 7.0 10.0 0.00 0.00 0.00 59 1011.7
20260507130029 45 275 6.0 10.0 0.00 0.00 0.00 59 1011.4
20260507124532 44 295 6.0 10.0 0.00 0.00 0.00 57 1011.4
20260507123029 42 279 7.0 10.0 0.00 0.00 0.00 55 1011.1
20260507121528 41 267 7.0 9.0 0.00 0.00 0.00 54 1010.9
20260507120030 42 290 7.0 9.0 0.00 0.00 0.00 54 1010.9
20260507114531 42 292 6.0 8.0 0.00 0.00 0.00 53 1010.8
20260507113034 44 253 5.0 8.0 0.00 0.00 0.00 49 1010.7
20260507111533 42 285 7.0 9.0 0.00 0.00 0.00 53 1010.4
20260507110032 43 298 7.0 9.0 0.00 0.00 0.00 52 1010.3
20260507104531 43 360 4.0 6.0 0.00 0.00 0.00 55 1010.3
20260507103028 43 325 5.0 8.0 0.00 0.00 0.00 56 1010.2
20260507101552 42 321 7.0 11.0 0.00 0.00 0.00 57 1010.2
20260507100035 42 12 8.0 16.0 0.00 0.00 0.00 61 1010.1
20260507094531 42 316 8.0 12.0 0.00 0.00 0.00 58 1010.0
20260507093032 42 339 4.0 8.0 0.00 0.00 0.00 60 1009.8
20260507091548 42 12 6.0 8.0 0.00 0.00 0.00 59 1010.0
20260507090029 42 355 6.0 9.0 0.00 0.00 0.00 62 1009.9
20260507084529 42 22 8.0 12.0 0.00 0.00 0.00 65 1009.2
20260507083031 43 22 10.0 13.0 0.00 0.00 0.00 65 1009.4
20260507081547 45 24 11.0 16.0 0.00 0.00 0.00 61 1009.4
20260507080031 45 30 2.0 6.0 0.00 0.00 0.00 57 1009.3
20260507074536 46 28 5.0 8.0 0.00 0.00 0.00 55 1009.2
20260507073030 45 55 3.0 6.0 0.00 0.00 0.00 57 1009.0
20260507071531 46 65 4.0 8.0 0.00 0.00 0.00 57 1009.0
20260507070030 46 76 6.0 11.0 0.00 0.00 0.00 56 1008.9
20260507064530 48 55 7.0 13.0 0.00 0.00 0.00 55 1008.7
20260507063030 49 65 12.0 16.0 0.00 0.00 0.00 53 1008.6
20260507061533 49 65 10.0 15.0 0.00 0.00 0.00 54 1008.6
20260507060032 52 54 10.0 18.0 0.00 0.00 0.00 47 1008.7
20260507054531 54 40 19.0 23.0 0.00 0.00 0.00 36 1008.7
20260507053030 54 71 10.0 14.0 0.00 0.00 0.00 36 1008.0
20260507051532 55 55 13.0 18.0 0.00 0.00 0.00 34 1008.0
20260507050034 56 80 12.0 14.0 0.00 0.00 0.00 32 1007.7
20260507044542 55 99 8.0 10.0 0.00 0.00 0.00 33 1007.8
20260507043037 56 98 6.0 11.0 0.00 0.00 0.00 32 1007.7
20260507041532 59 69 9.0 13.0 0.00 0.00 0.00 29 1007.7
20260507040030 59 118 8.0 16.0 0.00 0.00 0.00 29 1007.6
20260507034532 60 118 8.0 13.0 0.00 0.00 0.00 28 1007.8
20260507033030 61 0 2.0 17.0 0.00 0.00 0.00 28 1008.0
20260507031530 58 178 4.0 8.0 0.00 0.00 0.00 30 1007.6
20260507030037 59 126 7.0 10.0 0.00 0.00 0.00 30 1007.3
20260507024534 60 123 8.0 9.0 0.00 0.00 0.00 29 1007.2
20260507023033 62 107 6.0 7.0 0.00 0.00 0.00 27 1007.1
20260507021529 63 87 4.0 11.0 0.00 0.00 0.00 26 1007.1
20260507020033 66 355 3.0 5.0 0.00 0.00 0.00 24 1007.0
20260507014535 67 327 2.0 6.0 0.00 0.00 0.00 24 1007.2
20260507013035 67 316 2.0 5.0 0.00 0.00 0.00 24 1007.1
20260507011533 67 345 7.0 15.0 0.00 0.00 0.00 23 1007.2
20260507010032 69 346 9.0 19.0 0.00 0.00 0.00 23 1007.2
20260507004532 70 343 11.0 19.0 0.00 0.00 0.00 22 1007.4
20260507003028 70 28 16.0 23.0 0.00 0.00 0.00 22 1007.5
20260507001534 70 350 10.0 18.0 0.00 0.00 0.00 23 1007.4
20260507000033 69 355 9.0 16.0 0.00 0.00 0.00 24 1007.4
20260506234533 68 22 9.0 18.0 0.00 0.00 0.00 24 1007.3
20260506233032 69 328 6.0 14.0 0.00 0.00 0.00 23 1007.4
20260506231533 68 344 7.0 13.0 0.00 0.00 0.00 24 1007.6
20260506230028 68 270 6.0 13.0 0.00 0.00 0.00 24 1007.8
20260506224534 67 311 6.0 15.0 0.00 0.00 0.00 23 1008.0
20260506223036 66 275 8.0 14.0 0.00 0.00 0.00 23 1008.4
20260506221533 66 273 6.0 12.0 0.00 0.00 0.00 23 1008.8
20260506220036 65 300 9.0 18.0 0.00 0.00 0.00 23 1009.0
20260506214531 65 277 12.0 17.0 0.00 0.00 0.00 23 1009.4
20260506213030 64 243 11.0 17.0 0.00 0.00 0.00 24 1009.4
20260506211532 63 324 10.0 19.0 0.00 0.00 0.00 24 1009.7
20260506210032 63 294 9.0 15.0 0.00 0.00 0.00 25 1010.0
20260506204532 62 312 10.0 18.0 0.00 0.00 0.00 25 1010.2
20260506203030 61 249 9.0 17.0 0.00 0.00 0.00 26 1010.5
20260506201541 60 234 5.0 13.0 0.00 0.00 0.00 25 1010.7
20260506200032 59 292 8.0 16.0 0.00 0.00 0.00 25 1010.9
20260506194534 58 292 6.0 21.0 0.00 0.00 0.00 27 1011.1
20260506193030 57 254 11.0 22.0 0.00 0.00 0.00 26 1011.4
20260506191532 57 232 8.0 13.0 0.00 0.00 0.00 25 1011.6
20260506190029 56 204 10.0 23.0 0.00 0.00 0.00 27 1012.0
20260506184536 55 178 11.0 23.0 0.00 0.00 0.00 25 1012.3
20260506183031 54 221 8.0 17.0 0.00 0.00 0.00 26 1012.6